Regional Weather Roundup
Issued by NWS Sioux Falls, SD

Home | Current Version | Previous Version | Graphics & Text | Print | Product List | Glossary On
Versions: 1 2 3 4 5 6 7 8 9 10 11 12 13 14 15 16 17 18 19 20 21 22 23 24 25 26 27 28 29 30 31 32 33 34 35 36 37 38 39 40 41 42 43 44 45 46 47 48 49 50
738
ASUS43 KFSD 250910
RWRFSD

WEATHER ROUNDUP FOR SE SOUTH DAKOTA/SW MINNESOTA/NW IOWA
NATIONAL WEATHER SERVICE SIOUX FALLS SD
400 AM CDT FRI MAY 25 2018

NOTE: "FAIR" INDICATES FEW OR NO CLOUDS BELOW 12,000 FEET WITH NO
SIGNIFICANT WEATHER AND OR OBSTRUCTIONS TO VISIBILITY.


SDZ038>040-050-052>070-251000-
SOUTHEAST SOUTH DAKOTA

CITY           SKY/WX    TMP DP  RH WIND       PRES   REMARKS
BROOKINGS      PTCLDY    62  58  86 S3        29.83S
CHAMBERLAIN    CLEAR     63  60  93 W3        29.84F
HURON          PTCLDY    62  59  90 SW5       29.81S
MADISON        FAIR      63  63 100 W5        29.83F
MITCHELL       CLEAR     64  61  90 SW5       29.82F
SIOUX FALLS    PTCLDY    66  61  84 S7        29.81F
WINNER         FAIR      68  57  68 SW8       29.86F
YANKTON        PTCLDY    66  59  78 S6        29.84S
$$

MNZ071-072-080-081-089-090-097-098-251000-
SOUTHWEST MINNESOTA

CITY           SKY/WX    TMP DP  RH WIND       PRES   REMARKS
FAIRMONT       PTCLDY    71  64  78 S14       29.84F
JACKSON        CLOUDY    70  63  78 S10       29.85F
LUVERNE        MOCLDY    64  61  88 S8        29.83F
MARSHALL       CLOUDY    66  60  81 NW6       29.81S
MONTEVIDEO     MOCLDY    66  61  82 S6        29.79S
PIPESTONE      PTCLDY    66  61  82 SW8       29.83S
REDWOOD FALLS  CLOUDY    67  64  90 SE8       29.81S
TRACY          CLOUDY    72  64  77 SW8       29.82R
WORTHINGTON    CLOUDY    70  64  81 S16       29.85S
$$

IAZ001>003-012>014-020>022-031-032-NEZ013-014-SDZ071-251000-
NORTHWEST IOWA

CITY           SKY/WX    TMP DP  RH WIND       PRES   REMARKS
CHEROKEE       PTCLDY    68  64  88 S5        29.87S
DENISON        PTCLDY    68  63  83 SW6       29.90S
ESTHERVILLE    PTCLDY    68  64  87 S8        29.85F
ORANGE CITY    CLOUDY    72  64  78 S6        29.85F
SHELDON        CLOUDY    70  68  94 S9        29.83F
SIOUX CITY     MOCLDY    71  62  73 S6        29.86S
SPENCER        PTCLDY    71  62  73 S14       29.86R
STORM LAKE     CLOUDY    66  63  88 S9        29.88S
$$

ABBREVIATIONS USED IN REMARKS
   TC - TEMPERATURE IN CELSIUS
  WCI - WIND CHILL INDEX
   HX - HEAT INDEX
  VSB - VISIBILITY





USA.gov is the U.S. government's official web portal to all federal, state and local government web resources and services.